User: anonymous   Login
Location: Caltech
(34.1382°N, 118.1253°W)
Time: 22:33:00
(UTC-07:00)
Language:

Cosmos 2322 - Orbit

View from above orbital plane
View from above orbital plane
View from above satellite
View from above satellite

Ground track
Ground track

The orbit data is extracted from the following two-line orbital elements,

1 23704U 95058A   17230.52684594  .00000003  00000-0  26985-4 0  9996
2 23704  70.9812 273.1336 0009317 347.9880  12.1018 14.13365583124648
Epoch (UTC): 18 August 2017 12:38:39
Eccentricity: 0.0009317
inclination: 70.9812°
perigee height: 841 km
apogee height: 854 km
right ascension of ascending node: 273.1336°
argument of perigee: 347.9880°
revolutions per day: 14.13365583
mean anomaly at epoch: 12.1018°
orbit number at epoch: 12464

The dashed part of the orbit path shows where the satellite is in the earth's shadow,  

DLR